Flag for Canada Weather past 2 weeks in Québec, Quebec, Canada

Now
59 °F

Scattered clouds.


Feels Like: 58 °F
Forecast: 42 / 58 °F
Wind: 6 mph from North

Location: Quebec Weather Station

Current Time: Apr 28, 2015 at 4:11:38 PM

Latest Report: Apr 28, 2015 at 3:00 PM


Visibility: 30 mi

Pressure: 29.75 "Hg

Humidity: 51%

Dew point: 41 °F

Location of QuébecLocation

Historic Weather in Québec — Graph

°F

Québec temperature yesterday

Maximum temperature yesterday: 54 °F (at 3:00 PM)
Minimum temperature yesterday: 37 °F (at 1:00 AM)
Average temperature yesterday: 45 °F

Past Weeks' High & Low Weather Summary

 TemperatureHumidityPressure
High70 °F (Apr 13, 4:00 PM)100% (Apr 21, 1:00 PM)30.48 "Hg (Apr 21, 1:00 PM)
Low28 °F (Apr 16, 6:00 AM)20% (Apr 15, 5:00 PM)29.42 "Hg (Apr 23, 8:00 AM)
Average43 °F68%29.86 "Hg
* Reported Apr 13 3:00 PM — Apr 28 3:00 PM, Québec, Weather by CustomWeather, © 2015

Note: Actual official high and low records may vary slightly from our data, if they occured in-between our weather recording intervals... More about our weather records

Advertising

Québec weather history for previous 24 hours

 ConditionsComfort  
Time TempWeatherWind HumidityBarometerVisibility
3:00 PM
Tue, Apr 28
59 °FScattered clouds.6 mph51%29.75 "Hg30 mi
2:00 PM57 °FPartly sunny.8 mph55%29.78 "Hg30 mi
1:00 PM54 °FBroken clouds.6 mph58%29.83 "Hg30 mi
12:00 PM50 °FBroken clouds.5 mph71%29.86 "Hg30 mi
11:00 AM50 °FBroken clouds.7 mph71%29.88 "Hg30 mi
10:00 AM46 °FPartly sunny.3 mph76%29.90 "Hg30 mi
9:00 AM45 °FSprinkles. Mostly cloudy.8 mph81%29.92 "Hg15 mi
8:00 AM43 °FScattered showers. Partly sunny.8 mph87%29.92 "Hg30 mi
7:52 AM43 °FScattered showers. Partly sunny.8 mph87%29.91 "Hg30 mi
7:00 AM43 °FSprinkles. Broken clouds.8 mph87%29.91 "Hg15 mi
6:50 AM43 °FSprinkles. Mostly cloudy.9 mph87%29.91 "Hg15 mi
6:00 AM43 °FPassing clouds.7 mph81%29.90 "Hg20 mi
5:00 AM43 °FPassing clouds.9 mph81%29.88 "Hg15 mi
4:00 AM45 °FSprinkles. Mostly cloudy.13 mph76%29.88 "Hg15 mi
3:53 AM45 °FSprinkles. Passing clouds.12 mph71%29.88 "Hg15 mi
3:00 AM46 °FPassing clouds.9 mph66%29.87 "Hg15 mi
2:00 AM46 °FPassing clouds.14 mph66%29.85 "Hg15 mi
1:00 AM46 °FPassing clouds.13 mph71%29.85 "Hg15 mi
12:00 AM48 °FPassing clouds.22 mph62%29.84 "Hg15 mi
11:00 PM
Mon, Apr 27
48 °FPassing clouds.22 mph62%29.84 "Hg15 mi
10:00 PM50 °FPartly cloudy.16 mph62%29.84 "Hg15 mi
9:03 PM48 °FPassing clouds.12 mph71%29.83 "Hg15 mi
8:00 PM50 °FOvercast.12 mph71%29.82 "Hg25 mi
7:00 PM50 °FScattered showers. Partly sunny.9 mph67%29.79 "Hg30 mi
6:00 PM52 °FPartly sunny.6 mph67%29.77 "Hg25 mi
5:00 PM52 °FSprinkles. More clouds than sun.7 mph67%29.76 "Hg20 mi
4:00 PM52 °FOvercast.16 mph67%29.75 "Hg20 mi
Weather by CustomWeather, © 2015

See weather overviewHow to use our weather pages